DG0CDC-13 Weather Reports


time (UTC)temp
C
wind
direction
speed
KPH
gust
KPH
rain 1hr
cm
rain 24hr
cm
rain mn
cm
humidity
%
barometer
mb
20260506103335 10 90 0.0 1.6 0.00 1.47 0.00 95 1007.1
20260506102835 10 90 0.0 1.6 0.00 1.47 0.00 95 1007.0
20260506102358 10 90 0.0 3.2 0.00 1.47 0.00 95 1007.0
20260506101935 10 0 0.0 1.6 0.00 1.45 0.00 95 1006.9
20260506101438 10 270 0.0 1.6 0.00 1.45 0.00 95 1006.9
20260506100955 10 90 0.0 1.6 0.00 1.45 0.00 95 1006.9
20260506100505 10 45 0.0 1.6 0.00 1.42 0.00 95 1006.9
20260506100050 10 45 0.0 1.6 0.00 1.42 0.00 95 1006.9
20260506095548 10 45 0.0 0.0 0.00 1.42 0.00 95 1006.8
20260506095150 10 45 0.0 1.6 0.00 1.42 0.00 95 1006.8
20260506094701 10 90 0.0 1.6 0.00 1.42 0.00 95 1006.8
20260506094255 10 45 0.0 0.0 0.00 1.40 0.00 95 1006.8
20260506093835 10 90 0.0 0.0 0.00 1.40 0.00 95 1006.7
20260506093402 10 90 0.0 1.6 0.00 1.40 0.00 95 1006.7
20260506092930 10 135 0.0 1.6 0.00 1.37 0.00 95 1006.7
20260506092458 10 270 0.0 3.2 0.00 1.37 0.00 95 1006.6
20260506091958 10 270 0.0 1.6 0.00 1.37 0.00 95 1006.5
20260506091505 10 0 0.0 1.6 0.00 1.37 0.00 95 1006.5
20260506091043 10 0 0.0 1.6 0.00 1.32 0.00 95 1006.5
20260506090605 10 90 0.0 1.6 0.00 1.32 0.00 95 1006.5
20260506090135 10 90 0.0 0.0 0.00 1.32 0.00 95 1006.5
20260506085725 10 225 0.0 1.6 0.00 1.32 0.00 95 1006.5
20260506085306 10 90 0.0 0.0 0.00 1.30 0.00 95 1006.5
20260506084835 10 0 0.0 1.6 0.00 1.30 0.00 95 1006.5
20260506084405 10 45 0.0 1.6 0.00 1.27 0.00 95 1006.5
20260506083955 10 90 0.0 1.6 0.00 1.27 0.00 95 1006.5
20260506083550 10 0 0.0 1.6 0.00 1.27 0.00 95 1006.4
20260506083130 10 90 0.0 0.0 0.00 1.27 0.00 95 1006.4
20260506082635 10 90 0.0 0.0 0.00 1.27 0.00 95 1006.5
20260506082155 10 90 0.0 1.6 0.00 1.24 0.00 95 1006.4
20260506081745 10 90 0.0 0.0 0.00 1.24 0.00 95 1006.4
20260506081315 10 0 0.0 3.2 0.00 1.24 0.00 95 1006.4
20260506080850 10 180 0.0 0.0 0.00 1.22 0.00 95 1006.4
20260506080355 10 90 0.0 1.6 0.00 1.22 0.00 95 1006.3
20260506073145 9 270 0.0 1.6 0.00 1.14 0.00 95 1006.2
20260506072658 9 0 0.0 1.6 0.00 1.14 0.00 95 1006.2
20260506072250 9 0 0.0 0.0 0.00 1.12 0.00 94 1006.2
20260506071838 9 45 0.0 1.6 0.00 1.12 0.00 94 1006.2
20260506071421 9 0 0.0 1.6 0.00 1.09 0.00 94 1006.2
20260506071008 9 0 0.0 0.0 0.00 1.09 0.00 94 1006.1
20260506070610 9 0 0.0 1.6 0.00 1.09 0.00 94 1006.1
20260506070150 9 270 0.0 1.6 0.00 1.07 0.00 94 1006.0
20260506062450 9 270 0.0 1.6 0.00 0.86 0.00 94 1005.9
20260506061950 9 0 0.0 0.0 0.00 0.86 0.00 94 1005.8
20260506061505 9 270 0.0 0.0 0.00 0.86 0.00 94 1005.9
20260506061055 9 0 0.0 1.6 0.00 0.86 0.00 94 1005.8
20260506060608 9 0 0.0 1.6 0.00 0.81 0.00 94 1005.8
20260506060205 9 0 0.0 1.6 0.00 0.81 0.00 94 1005.8
20260506051405 9 0 0.0 1.6 0.00 0.71 0.00 94 1005.8
20260506050935 9 90 0.0 1.6 0.00 0.66 0.00 94 1006.0
20260506050435 9 90 0.0 1.6 0.00 0.66 0.00 94 1005.9
20260506045058 10 90 0.0 1.6 0.00 0.64 0.00 94 1005.9
20260506044648 10 90 0.0 1.6 0.00 0.64 0.00 94 1005.9
20260506044220 10 0 0.0 1.6 0.00 0.64 0.00 94 1005.9
20260506043818 10 90 0.0 0.0 0.00 0.61 0.00 94 1006.0
20260506043348 10 90 0.0 1.6 0.00 0.61 0.00 94 1005.9
20260506042928 10 0 0.0 1.6 0.00 0.61 0.00 94 1005.9
20260506042438 10 0 0.0 0.0 0.00 0.58 0.00 94 1006.0
20260506042015 10 0 0.0 1.6 0.00 0.56 0.00 94 1006.1
20260506041535 10 135 0.0 0.0 0.00 0.56 0.00 94 1006.0
20260506041135 10 180 0.0 1.6 0.00 0.53 0.00 94 1006.0
20260506040710 10 0 0.0 0.0 0.00 0.53 0.00 93 1006.0
20260506040258 10 270 0.0 1.6 0.00 0.48 0.00 93 1006.1
20260506035855 10 0 0.0 0.0 0.00 0.48 0.00 93 1006.2
20260506035358 10 270 0.0 1.6 0.00 0.46 0.00 93 1006.3
20260506034858 10 0 0.0 1.6 0.00 0.43 0.00 93 1006.3
20260506034500 10 270 0.0 1.6 0.00 0.43 0.00 93 1006.3
20260506034058 10 0 0.0 1.6 0.00 0.41 0.00 93 1006.2
20260506033645 10 180 0.0 1.6 0.00 0.41 0.00 93 1006.2
20260506033218 10 0 0.0 0.0 0.00 0.38 0.00 93 1006.4
20260506032805 10 0 0.0 0.0 0.00 0.38 0.00 93 1006.4
20260506032318 10 90 0.0 1.6 0.00 0.30 0.00 93 1006.4
20260506031818 10 90 0.0 0.0 0.00 0.28 0.00 93 1006.4
20260506031320 10 90 0.0 0.0 0.00 0.28 0.00 93 1006.4
20260506030910 10 90 0.0 0.0 0.00 0.25 0.00 93 1006.5
20260506030430 10 0 0.0 3.2 0.00 0.25 0.00 93 1006.5
20260506025938 10 0 0.0 0.0 0.00 0.23 0.00 93 1006.6
20260506025505 10 0 0.0 0.0 0.00 0.20 0.00 93 1006.6
20260506025055 10 0 0.0 1.6 0.00 0.20 0.00 93 1006.7
20260506024610 10 90 0.0 1.6 0.00 0.15 0.00 92 1006.7
20260506024130 10 315 0.0 1.6 0.00 0.15 0.00 92 1006.7
20260506023718 10 270 0.0 1.6 0.00 0.13 0.00 92 1006.7
20260506023238 10 90 0.0 1.6 0.00 0.13 0.00 92 1006.8
20260506022815 10 45 0.0 1.6 0.00 0.13 0.00 92 1006.8
20260506022410 10 90 0.0 1.6 0.00 0.10 0.00 92 1006.9
20260506021915 10 90 0.0 1.6 0.00 0.10 0.00 92 1006.9
20260506021438 10 0 0.0 0.0 0.00 0.08 0.00 92 1006.8
20260506021009 10 90 0.0 1.6 0.00 0.08 0.00 92 1006.9
20260506020549 10 270 0.0 0.0 0.00 0.08 0.00 92 1006.9
20260506020135 10 270 0.0 0.0 0.00 0.08 0.00 92 1006.9
20260506015710 10 225 0.0 1.6 0.00 0.08 0.00 92 1006.8
20260506015218 10 90 0.0 1.6 0.00 0.05 0.00 92 1006.9
20260506014815 11 90 0.0 1.6 0.00 0.05 0.00 92 1006.9
20260506014345 11 90 0.0 1.6 0.00 0.00 0.00 92 1007.0
20260506013850 11 90 0.0 0.0 0.00 0.00 0.00 92 1007.0
20260506013430 11 90 0.0 1.6 0.00 0.00 0.00 92 1007.0
20260506012945 11 0 0.0 1.6 0.00 0.00 0.00 92 1007.0
20260506012545 11 270 0.0 1.6 0.00 0.00 0.00 92 1006.9
20260506012055 11 90 0.0 1.6 0.00 0.00 0.00 92 1006.9
20260506011635 11 180 0.0 1.6 0.00 0.00 0.00 92 1006.9
20260506011200 11 270 0.0 3.2 0.00 0.00 0.00 92 1007.0
20260506010745 11 90 0.0 1.6 0.00 0.00 0.00 92 1007.0
20260506010330 11 270 0.0 1.6 0.00 0.00 0.00 92 1007.1
20260506005903 11 315 0.0 1.6 0.00 0.00 0.00 92 1007.2
20260506005445 11 90 0.0 1.6 0.00 0.00 0.00 92 1007.2
20260506005035 11 270 0.0 1.6 0.00 0.00 0.00 92 1007.2
20260506004545 11 90 0.0 0.0 0.00 0.00 0.00 92 1007.3
20260506004125 11 270 0.0 1.6 0.00 0.00 0.00 92 1007.3
20260506003635 11 90 0.0 0.0 0.00 0.00 0.00 92 1007.3
20260506003210 11 90 0.0 1.6 0.00 0.00 0.00 91 1007.3
20260506002738 11 0 0.0 3.2 0.00 0.00 0.00 91 1007.4
20260506002338 11 0 0.0 1.6 0.00 0.00 0.00 91 1007.4
20260506001935 11 90 0.0 3.2 0.00 0.00 0.00 91 1007.5
20260506001510 11 90 0.0 3.2 0.00 0.00 0.00 91 1007.5
20260506001105 11 90 0.0 0.0 0.00 0.00 0.00 91 1007.5
20260506000630 11 270 0.0 3.2 0.00 0.00 0.00 91 1007.5
20260506000219 11 270 0.0 3.2 0.00 0.00 0.00 91 1007.6
20260505235735 11 90 0.0 3.2 0.00 0.00 0.00 91 1007.7
20260505235305 11 45 0.0 1.6 0.00 0.00 0.00 91 1007.7
20260505234805 11 0 0.0 1.6 0.00 0.00 0.00 91 1007.7
20260505234335 11 90 0.0 3.2 0.00 0.00 0.00 91 1007.7
20260505233850 11 45 0.0 3.2 0.00 0.00 0.00 91 1007.7
20260505233438 11 90 0.0 1.6 0.00 0.00 0.00 91 1007.8
20260505232945 11 180 0.0 1.6 0.00 0.00 0.00 91 1007.8
20260505232525 11 90 0.0 0.0 0.00 0.00 0.00 91 1007.8
20260505232038 11 90 0.0 1.6 0.00 0.00 0.00 91 1007.8
20260505231616 11 270 0.0 1.6 0.00 0.00 0.00 90 1007.8
20260505231205 11 90 0.0 3.2 0.00 0.00 0.00 90 1007.8
20260505230758 11 90 0.0 3.2 0.00 0.00 0.00 90 1007.9
20260505230305 11 90 0.0 1.6 0.00 0.00 0.00 90 1007.9
20260505225818 11 0 0.0 3.2 0.00 0.00 0.00 90 1007.9
20260505225349 11 90 0.0 1.6 0.00 0.00 0.00 90 1008.0
20260505224915 11 135 0.0 3.2 0.00 0.00 0.00 90 1008.1
20260505224445 11 90 0.0 3.2 0.00 0.00 0.00 90 1008.0
20260505224025 11 45 0.0 1.6 0.00 0.00 0.00 90 1008.0
20260505223544 11 90 0.0 1.6 0.00 0.00 0.00 90 1008.0
20260505223050 11 90 0.0 1.6 0.00 0.00 0.00 90 1008.1
20260505222605 11 90 0.0 3.2 0.00 0.00 0.00 90 1008.1
20260505222202 11 0 0.0 1.6 0.00 0.00 0.00 90 1008.1
20260505221755 11 90 0.0 1.6 0.00 0.00 0.00 90 1008.2
20260505221315 11 90 0.0 3.2 0.00 0.00 0.00 90 1008.2
20260505220910 11 0 0.0 0.0 0.00 0.00 0.00 90 1008.3
20260505220415 11 180 0.0 1.6 0.00 0.64 0.00 90 1008.3
20260505215915 11 90 0.0 0.0 0.00 0.64 0.00 90 1008.4
20260505215435 11 90 0.0 1.6 0.00 0.64 0.00 90 1008.4
20260505214945 11 315 0.0 3.2 0.00 0.64 0.00 90 1008.5
20260505214510 11 90 0.0 1.6 0.00 0.64 0.00 90 1008.4
20260505214055 11 270 0.0 3.2 0.00 0.64 0.00 90 1008.5
20260505213605 11 90 0.0 1.6 0.00 0.64 0.00 90 1008.5
20260505213138 11 90 0.0 1.6 0.00 0.64 0.00 90 1008.5
20260505212710 12 90 0.0 3.2 0.00 0.64 0.00 90 1008.5
20260505212210 12 90 0.0 1.6 0.00 0.64 0.00 90 1008.5
20260505211720 12 90 0.0 1.6 0.00 0.64 0.00 90 1008.5
20260505211250 12 90 0.0 1.6 0.00 0.64 0.00 90 1008.5
20260505210755 12 90 0.0 1.6 0.00 0.64 0.00 90 1008.5
20260505210305 12 180 0.0 1.6 0.00 0.64 0.00 90 1008.5
20260505205838 12 90 0.0 3.2 0.00 0.64 0.00 90 1008.6
20260505205345 12 90 0.0 1.6 0.00 0.64 0.00 90 1008.6
20260505204938 12 45 0.0 3.2 0.00 0.64 0.00 90 1008.6
20260505204530 12 270 0.0 1.6 0.00 0.64 0.00 90 1008.6
20260505204035 12 180 0.0 1.6 0.00 0.64 0.00 90 1008.6
20260505203555 12 0 0.0 1.6 0.00 0.64 0.00 90 1008.6
20260505203140 12 45 0.0 1.6 0.00 0.64 0.00 90 1008.6
20260505202736 12 0 0.0 1.6 0.00 0.64 0.00 90 1008.5
20260505202306 12 90 0.0 3.2 0.00 0.64 0.00 90 1008.7
20260505201805 12 90 0.0 1.6 0.00 0.64 0.00 90 1008.7
20260505201400 12 135 0.0 1.6 0.00 0.64 0.00 90 1008.7
20260505200930 12 0 0.0 1.6 0.00 0.64 0.00 90 1008.7
20260505200449 12 180 0.0 1.6 0.00 0.64 0.00 90 1008.8
20260505200010 12 180 0.0 1.6 0.00 0.64 0.00 90 1008.8
20260505195515 12 0 0.0 3.2 0.00 0.64 0.00 90 1008.8
20260505195015 12 135 0.0 1.6 0.00 0.64 0.00 90 1008.7
20260505194555 12 270 0.0 1.6 0.00 0.64 0.00 90 1008.7
20260505194105 12 90 0.0 1.6 0.00 0.64 0.00 90 1008.7
20260505193625 12 270 0.0 1.6 0.00 0.64 0.00 90 1008.8
20260505193210 12 45 0.0 3.2 0.00 0.64 0.00 90 1008.7
20260505192735 12 135 0.0 1.6 0.00 0.64 0.00 90 1008.8
20260505192238 12 270 0.0 1.6 0.00 0.64 0.00 90 1008.8
20260505191818 12 90 0.0 1.6 0.00 0.64 0.00 90 1008.8
20260505191400 12 90 0.0 3.2 0.00 0.64 0.00 90 1008.7
20260505190905 12 90 0.0 1.6 0.00 0.64 0.00 89 1008.8
20260505190410 12 90 0.0 1.6 0.00 0.64 0.00 89 1008.8
20260505185945 12 90 0.0 1.6 0.00 0.64 0.00 89 1008.7
20260505185455 12 90 0.0 1.6 0.00 0.64 0.00 89 1008.7
20260505185035 12 270 0.0 1.6 0.00 0.64 0.00 89 1008.7
20260505184624 12 90 0.0 1.6 0.00 0.64 0.00 89 1008.7
20260505184130 12 90 0.0 1.6 0.00 0.64 0.00 89 1008.7
20260505183715 12 270 0.0 1.6 0.00 0.64 0.00 89 1008.6
20260505183250 12 90 0.0 1.6 0.00 0.64 0.00 89 1008.6
20260505182825 12 270 0.0 1.6 0.00 0.64 0.00 89 1008.6
20260505182422 12 135 0.0 3.2 0.00 0.64 0.00 89 1008.6
20260505181955 12 90 0.0 1.6 0.00 0.64 0.00 89 1008.5
20260505181510 12 45 0.0 3.2 0.00 0.64 0.00 89 1008.5
20260505181025 12 90 0.0 3.2 0.00 0.64 0.00 89 1008.6
20260505180545 13 90 0.0 3.2 0.00 0.64 0.00 89 1008.6
20260505180130 13 90 0.0 3.2 0.00 0.64 0.00 89 1008.7
20260505175710 13 90 0.0 1.6 0.00 0.64 0.00 89 1008.7
20260505175210 13 90 0.0 1.6 0.00 0.64 0.00 89 1008.8
20260505174809 13 45 0.0 1.6 0.00 0.64 0.00 89 1008.7
20260505174335 13 270 0.0 0.0 0.00 0.64 0.00 89 1008.7
20260505173840 13 90 0.0 1.6 0.00 0.64 0.00 89 1008.6
20260505173355 13 45 0.0 1.6 0.00 0.64 0.00 89 1008.6
20260505172936 13 90 0.0 1.6 0.00 0.64 0.00 89 1008.7
20260505172535 13 270 0.0 3.2 0.00 0.64 0.00 89 1008.7
20260505172038 13 90 0.0 1.6 0.00 0.64 0.00 89 1008.7
20260505171605 13 180 0.0 1.6 0.00 0.64 0.00 89 1008.7
20260505171125 13 0 0.0 0.0 0.00 0.64 0.00 88 1008.7
20260505170715 13 0 0.0 3.2 0.00 0.64 0.00 88 1008.7
20260505170315 13 90 0.0 1.6 0.00 0.64 0.00 88 1008.7
20260505165915 13 0 0.0 1.6 0.00 0.64 0.00 88 1008.8
20260505165450 13 315 0.0 3.2 0.00 0.64 0.00 88 1008.8
20260505165035 13 180 0.0 1.6 0.00 0.64 0.00 88 1008.8
20260505164538 13 0 0.0 3.2 0.00 0.64 0.00 88 1008.9
20260505164043 13 90 0.0 3.2 0.00 0.64 0.00 88 1008.9
20260505163645 13 0 0.0 3.2 0.00 0.64 0.00 88 1008.9
20260505163240 13 0 0.0 3.2 0.00 0.64 0.00 88 1008.9
20260505162805 13 0 0.0 1.6 0.00 0.64 0.00 88 1008.9
20260505162315 13 315 0.0 3.2 0.00 0.64 0.00 88 1009.0
20260505161818 13 0 0.0 3.2 0.00 0.64 0.00 88 1009.0
20260505161345 13 0 0.0 0.0 0.00 0.64 0.00 88 1009.0
20260505160935 13 225 0.0 3.2 0.00 0.64 0.00 88 1009.0
20260505160500 13 0 0.0 3.2 0.00 0.64 0.00 88 1009.0
20260505152938 14 180 0.0 3.2 0.00 0.64 0.00 87 1009.2
20260505152505 14 270 0.0 3.2 0.00 0.64 0.00 87 1009.2
20260505152018 14 0 0.0 3.2 0.00 0.64 0.00 87 1009.1
20260505151602 14 0 0.0 3.2 0.00 0.64 0.00 87 1009.1
20260505151205 14 45 0.0 3.2 0.00 0.64 0.00 87 1009.1
20260505150715 15 0 0.0 3.2 0.00 0.64 0.00 87 1009.2
20260505150215 14 90 0.0 1.6 0.00 0.64 0.00 87 1009.2
20260505140245 15 270 0.0 3.2 0.00 0.64 0.00 87 1009.4
20260505124638 15 0 0.0 1.6 0.00 0.64 0.00 88 1009.7
20260505124155 15 0 0.0 1.6 0.00 0.64 0.00 88 1009.6
20260505123710 15 0 0.0 1.6 0.00 0.64 0.00 88 1009.7
20260505123215 15 0 0.0 0.0 0.00 0.64 0.00 87 1009.7
20260505122810 15 45 0.0 1.6 0.00 0.64 0.00 87 1009.7
20260505122325 15 0 0.0 1.6 0.00 0.64 0.00 87 1009.7
20260505121835 15 90 0.0 1.6 0.00 0.64 0.00 87 1009.7
20260505121435 15 0 0.0 3.2 0.00 0.64 0.00 87 1009.7
20260505121030 15 315 0.0 3.2 0.00 0.64 0.00 87 1009.7
20260505120540 15 90 0.0 1.6 0.00 0.64 0.00 87 1009.7
20260505120118 15 90 0.0 1.6 0.00 0.64 0.00 87 1009.6
20260505115645 15 0 0.0 3.2 0.00 0.64 0.00 87 1009.6
20260505115215 15 0 0.0 1.6 0.00 0.64 0.00 87 1009.6
20260505114735 15 270 0.0 1.6 0.00 0.64 0.00 87 1009.7
20260505114305 15 0 0.0 1.6 0.00 0.64 0.00 87 1009.7
20260505113810 15 90 0.0 0.0 0.00 0.64 0.00 87 1009.8
20260505113355 15 90 0.0 3.2 0.00 0.64 0.00 87 1009.7
20260505112930 15 0 0.0 1.6 0.00 0.64 0.00 87 1009.8
20260505112510 15 0 0.0 1.6 0.00 0.64 0.00 87 1009.8
20260505112015 15 270 0.0 1.6 0.00 0.64 0.00 87 1009.8
20260505111515 15 0 0.0 1.6 0.00 0.64 0.00 87 1009.8
20260505111038 15 0 0.0 1.6 0.00 0.64 0.00 87 1009.8
20260505110605 15 0 0.0 1.6 0.00 0.64 0.00 87 1009.8
20260505110150 15 0 0.0 1.6 0.00 0.64 0.00 87 1010.0